Regional Weather Roundup
Issued by NWS State College, PA

Home | Current Version | Previous Version | Text Only | Print | Product List | Glossary Off
Versions: 1 2 3 4 5 6 7 8 9 10 11 12 13 14 15 16 17 18 19 20 21 22 23 24 25 26 27 28 29 30 31 32 33 34 35 36 37 38 39 40 41 42 43 44 45 46 47 48 49 50

000
ASUS41 KCTP 240510
RWRCTP

REGIONAL WEATHER ROUNDUP
NATIONAL WEATHER SERVICE STATE COLLEGE PA
100 AM EDT MON APR 24 2017

Note: "fair" indicates few or no clouds below 12,000 feet with no
significant weather and/or obstructions to visibility.

* = STATION THAT DOES NOT REPORT PRECIPITATION /E.G. RAIN...SNOW...ETC/
    THUNDER OR FOG.

PAZ002>004-007>009-013>016-020>023-029>032-240600-
WESTERN PENNSYLVANIA

CITY           SKY/WX    TMP DP  RH WIND       PRES   REMARKS
ERIE           CLEAR     41  32  70 S3        30.08S
MEADVILLE      CLEAR     45  31  58 NE6       30.07S
FRANKLIN*      CLEAR     48  28  46 NE3       30.08S
NEW CASTLE     FAIR      49  37  63 NE3       30.06S
BEAVER COUNTY  NOT AVBL
BUTLER*        PTCLDY    46  36  66 NE3       30.07R
PITTSBURGH INT MOCLDY    56  30  37 SE3       30.04S
PITTSBURGH     PTCLDY    54  28  36 SE7       30.04R
INDIANA*       CLEAR     48  36  61 CALM      30.08S
LATROBE        PTCLDY    54  32  43 CALM      30.06S
WASHINGTON CO* PTCLDY    50  34  53 E6        30.06R
$$

PAZ004>006-010>012-017>019-024>028-033>037-041-042-045-046-049>053-240600-
CENTRAL PENNSYLVANIA

CITY           SKY/WX    TMP DP  RH WIND       PRES   REMARKS
BRADFORD       CLOUDY    45  33  63 CALM      30.09S
DUBOIS         PTCLDY    52  27  38 CALM      30.06F
CLEARFIELD     PTCLDY    47  31  53 CALM      30.07F
JOHNSTOWN      CLEAR     47  36  65 E6        30.06F
ALTOONA        CLEAR     50  38  63 CALM      30.09S
STATE COLLEGE  PTCLDY    52  32  45 CALM      30.07F
WILLIAMSPORT   PTCLDY    49  39  68 CALM      30.08S
SELINSGROVE    PTCLDY    43  41  93 CALM      30.09F
FT INDIANTOWN  PTCLDY    46  46  97 CALM      30.10S
CAPITAL CITY   CLEAR     48  42  80 SW3       30.09F
HARRISBURG     PTCLDY    50  45  83 CALM      30.09F
YORK           CLOUDY    49  47  93 CALM      30.09F
$$

PAZ038>040-043-044-047-048-054-055-060>062-067>071-240600-
EASTERN PENNSYLVANIA

CITY           SKY/WX    TMP DP  RH WIND       PRES   REMARKS
SCRANTON       CLEAR     50  36  58 CALM      30.09R
MOUNT POCONO   CLEAR     39  36  89 CALM      30.10S
ALLENTOWN      CLEAR     53  43  68 S5        30.11S
QUAKERTOWN*    CLEAR     46  45  93 CALM      30.13R
READING        CLEAR     51  44  77 S3        30.10S
LANCASTER      CLOUDY    48  44  86 E3        30.10F
COATESVILLE    CLOUDY    48  46  93 CALM      30.13S
POTTSTOWN      PTCLDY    44  42  93 CALM      30.13F
BLUE BELL      MOCLDY    46  45  93 CALM      30.13F
DOYLESTOWN     PTCLDY    46  44  93 CALM      30.12S
WILLOW GROVE   NOT AVBL
NORTH PHILA    CLOUDY    51  45  79 CALM      30.14F
PHILADELPHIA   CLOUDY    51  45  79 CALM      30.13F
$$



USA.gov is the U.S. government's official web portal to all federal, state and local government web resources and services.